TimeEST,TemperatureF,Dew PointF,Humidity,Sea Level PressureIn,VisibilityMPH,Wind Direction,Wind SpeedMPH,Gust SpeedMPH,PrecipitationIn,Events,Conditions,WindDirDegrees,DateUTC
12:53 AM,39.9,12.9,33,30.08,10.0,Calm,Calm,-,N/A,,Clear,0,2013-02-20 05:53:00
1:53 AM,41.0,10.0,28,30.06,10.0,WNW,9.2,-,N/A,,Clear,290,2013-02-20 06:53:00
2:53 AM,34.0,14.0,44,30.08,10.0,SE,3.5,-,N/A,,Clear,140,2013-02-20 07:53:00
3:53 AM,32.0,16.0,52,30.07,10.0,Calm,Calm,-,N/A,,Clear,0,2013-02-20 08:53:00
4:53 AM,30.9,16.0,54,30.08,10.0,Calm,Calm,-,N/A,,Clear,0,2013-02-20 09:53:00
5:53 AM,30.0,16.0,56,30.09,10.0,Calm,Calm,-,N/A,,Clear,0,2013-02-20 10:53:00
6:53 AM,28.0,16.0,61,30.10,10.0,Calm,Calm,-,N/A,,Clear,0,2013-02-20 11:53:00
7:53 AM,30.0,19.9,66,30.12,10.0,Calm,Calm,-,N/A,,Clear,0,2013-02-20 12:53:00
8:53 AM,37.9,16.0,41,30.13,10.0,SW,4.6,-,N/A,,Clear,220,2013-02-20 13:53:00
9:53 AM,42.1,12.9,31,30.14,10.0,SSE,5.8,-,N/A,,Clear,160,2013-02-20 14:53:00
10:53 AM,45.0,10.9,25,30.12,10.0,Calm,Calm,-,N/A,,Clear,0,2013-02-20 15:53:00
11:53 AM,46.0,10.0,23,30.12,10.0,Variable,3.5,-,N/A,,Clear,0,2013-02-20 16:53:00
12:53 PM,48.9,7.0,18,30.10,10.0,WSW,3.5,-,N/A,,Clear,250,2013-02-20 17:53:00
1:53 PM,54.0,8.1,16,30.06,10.0,WNW,9.2,-,N/A,,Clear,290,2013-02-20 18:53:00
4:53 PM,54.0,12.0,19,30.07,10.0,SW,10.4,-,N/A,,Clear,230,2013-02-20 21:53:00
5:53 PM,53.1,12.9,20,30.09,10.0,SSW,5.8,-,N/A,,Clear,210,2013-02-20 22:53:00
6:53 PM,51.1,15.1,24,30.09,10.0,Calm,Calm,-,N/A,,Clear,0,2013-02-20 23:53:00
8:53 PM,44.1,12.9,28,30.09,10.0,North,9.2,-,N/A,,Clear,10,2013-02-21 01:53:00
9:53 PM,42.1,10.9,28,30.10,10.0,North,11.5,-,N/A,,Clear,10,2013-02-21 02:53:00
10:53 PM,39.9,12.0,32,30.10,10.0,North,8.1,-,N/A,,Clear,360,2013-02-21 03:53:00
11:53 PM,39.0,10.9,32,30.10,10.0,NNE,3.5,-,N/A,,Clear,20,2013-02-21 04:53:00